GW5909 Weather Reports


time (UTC)temp
C
wind
direction
speed
KPH
gust
KPH
rain 1hr
cm
rain 24hr
cm
rain mn
cm
humidity
%
barometer
mb
20260505140405 20 225 0.0 4.8 0.00 0.41 0.00 64 1008.1
20260505124406 18 198 3.2 14.5 0.00 0.48 0.00 67 1009.1
20260505123906 17 203 1.6 11.3 0.00 0.48 0.00 68 1008.9
20260505122405 17 218 0.0 8.0 0.00 0.51 0.00 68 1008.7
20260505121905 17 200 3.2 8.0 0.00 0.51 0.00 68 1008.5
20260505121405 17 224 1.6 8.0 0.00 0.56 0.00 68 1008.8
20260505120906 17 242 1.6 4.8 0.00 0.56 0.00 68 1008.8
20260505115905 16 310 0.0 0.0 0.00 0.56 0.00 68 1008.7
20260505115405 16 310 0.0 0.0 0.00 0.56 0.00 68 1008.7
20260505114905 16 310 0.0 0.0 0.00 0.56 0.00 68 1008.9
20260505114405 16 310 0.0 0.0 0.00 0.56 0.00 68 1009.1
20260505113906 16 309 0.0 0.0 0.00 0.56 0.00 68 1008.9
20260505112905 16 309 0.0 3.2 0.00 0.56 0.00 67 1009.1
20260505112406 16 284 0.0 1.6 0.00 0.56 0.00 67 1009.3
20260505111905 16 267 0.0 0.0 0.00 0.56 0.00 67 1009.5
20260505111406 16 267 0.0 3.2 0.00 0.56 0.00 67 1009.1
20260505110905 16 277 0.0 3.2 0.00 0.56 0.00 67 1009.0
20260505110406 16 281 1.6 4.8 0.00 0.56 0.00 67 1009.1
20260505101405 16 223 0.0 3.2 0.00 0.58 0.00 66 1008.0
20260505100905 16 300 0.0 1.6 0.00 0.58 0.00 66 1007.8
20260505095405 16 224 1.6 9.7 0.00 0.64 0.00 66 1007.7
20260505094905 16 218 1.6 14.5 0.00 0.64 0.00 66 1007.3
20260505093405 16 198 1.6 11.3 0.00 0.66 0.00 65 1007.5
20260505092906 16 240 1.6 8.0 0.00 0.66 0.00 65 1007.4
20260505092405 16 217 1.6 9.7 0.00 0.66 0.00 65 1007.2
20260505091905 16 213 1.6 9.7 0.00 0.66 0.00 65 1007.3
20260505091405 16 237 1.6 8.0 0.00 0.69 0.00 64 1007.3
20260505090905 16 208 1.6 8.0 0.00 0.69 0.00 64 1007.2
20260505090405 16 258 0.0 9.7 0.00 0.79 0.00 64 1007.2
20260505085905 16 234 0.0 4.8 0.00 0.79 0.00 64 1007.4
20260505084905 16 233 1.6 8.0 0.00 0.79 0.00 64 1007.1
20260505084405 16 199 1.6 4.8 0.00 0.79 0.00 64 1007.0
20260505083406 16 119 1.6 8.0 0.00 0.79 0.00 63 1006.7
20260505082905 16 252 1.6 9.7 0.00 0.79 0.00 63 1006.9
20260505082405 17 199 0.0 12.9 0.00 0.79 0.00 63 1006.9
20260505081905 17 212 0.0 11.3 0.00 0.79 0.00 63 1006.7
20260505081405 17 204 1.6 14.5 0.00 0.79 0.00 63 1006.6
20260505080905 17 205 3.2 12.9 0.00 0.79 0.00 63 1006.3
20260505075904 17 199 8.0 19.3 0.00 0.79 0.00 63 1006.3
20260505075405 17 225 1.6 9.7 0.00 0.79 0.00 63 1006.4
20260505074905 17 205 3.2 12.9 0.00 0.79 0.00 63 1006.5
20260505074405 17 202 3.2 20.9 0.00 0.79 0.00 63 1006.5
20260505073905 17 241 1.6 14.5 0.00 0.79 0.00 63 1006.5
20260505072905 17 184 3.2 11.3 0.00 0.79 0.00 63 1006.5
20260505072405 17 231 0.0 8.0 0.00 0.79 0.00 63 1006.3
20260505071905 17 184 0.0 9.7 0.00 0.79 0.00 63 1006.2
20260505071405 17 219 3.2 12.9 0.00 0.79 0.00 64 1006.2
20260505070905 17 212 1.6 9.7 0.00 0.79 0.00 64 1006.3
20260505070405 17 232 3.2 20.9 0.00 0.79 0.00 64 1006.0
20260505065905 17 209 1.6 11.3 0.00 0.79 0.00 64 1006.5
20260505064905 17 205 3.2 11.3 0.00 0.79 0.00 64 1006.3
20260505063905 17 219 3.2 12.9 0.00 0.79 0.00 64 1006.4
20260505063405 17 207 4.8 14.5 0.00 0.79 0.00 64 1006.3
20260505062905 17 199 4.8 24.1 0.00 0.79 0.00 64 1006.3
20260505061905 17 193 3.2 19.3 0.00 0.79 0.00 64 1006.5
20260505061405 17 196 3.2 14.5 0.00 0.79 0.00 64 1006.6
20260505060904 17 196 3.2 14.5 0.00 0.79 0.00 64 1006.6
20260505060404 17 236 1.6 16.1 0.00 0.79 0.00 64 1006.4
20260505055904 17 198 4.8 20.9 0.00 0.79 0.00 63 1006.5
20260505055405 17 201 1.6 16.1 0.00 0.79 0.00 63 1006.4
20260505054905 17 208 0.0 11.3 0.00 0.79 0.00 63 1006.5
20260505054405 17 234 3.2 20.9 0.00 0.79 0.00 63 1006.5
20260505053905 17 191 8.0 19.3 0.00 0.79 0.00 63 1006.2
20260505053405 17 185 4.8 19.3 0.00 0.79 0.00 63 1006.2
20260505052404 17 214 4.8 16.1 0.00 0.79 0.00 63 1006.5
20260505051905 17 195 3.2 12.9 0.00 0.79 0.00 63 1006.4
20260505051405 17 203 3.2 19.3 0.00 0.79 0.00 63 1006.5
20260505050905 17 217 4.8 19.3 0.00 0.79 0.00 63 1006.8
20260505050405 17 170 3.2 12.9 0.00 0.79 0.00 63 1006.7
20260505041405 17 204 0.0 3.2 0.00 0.79 0.41 63 1006.4
20260505040904 17 224 0.0 4.8 0.00 0.79 0.41 63 1006.6
20260505040405 17 204 1.6 4.8 0.00 0.79 0.41 63 1006.6
20260505035904 17 215 0.0 1.6 0.00 0.41 0.41 63 1006.5
20260505035405 17 215 0.0 3.2 0.00 0.41 0.41 62 1006.5
20260505034405 17 231 0.0 8.0 0.00 0.41 0.41 63 1006.5
20260505033905 17 215 1.6 8.0 0.00 0.41 0.41 62 1006.4
20260505032905 17 214 0.0 0.0 0.00 0.41 0.41 62 1006.5
20260505032404 17 149 0.0 3.2 0.00 0.41 0.41 62 1006.4
20260505031905 17 168 0.0 1.6 0.00 0.41 0.41 62 1006.5
20260505031404 17 214 0.0 3.2 0.00 0.41 0.41 61 1006.2
20260505030905 18 206 0.0 1.6 0.00 0.41 0.41 61 1006.3
20260505030404 18 217 0.0 1.6 0.00 0.41 0.41 61 1006.1
20260505025905 18 207 0.0 3.2 0.00 0.41 0.41 61 1006.1
20260505025404 18 225 1.6 11.3 0.00 0.41 0.41 61 1006.0
20260505024405 18 229 0.0 1.6 0.00 0.41 0.41 61 1005.9
20260505023904 18 208 0.0 1.6 0.00 0.41 0.41 61 1005.6
20260505023404 18 209 0.0 4.8 0.00 0.41 0.41 61 1005.8
20260505022904 18 184 1.6 4.8 0.00 0.41 0.41 60 1005.7
20260505022404 18 207 0.0 0.0 0.00 0.41 0.41 60 1005.4
20260505021904 18 217 0.0 3.2 0.00 0.41 0.41 60 1005.2
20260505021405 18 178 1.6 4.8 0.00 0.41 0.41 59 1005.0
20260505020404 18 188 1.6 9.7 0.00 0.41 0.41 58 1004.8
20260505015905 18 205 0.0 8.0 0.00 0.41 0.41 58 1005.0
20260505015404 19 195 1.6 4.8 0.00 0.41 0.41 58 1004.7
20260505014905 19 216 0.0 1.6 0.00 0.41 0.41 58 1004.8
20260505013905 19 216 0.0 14.5 0.00 0.41 0.41 58 1004.6
20260505013405 19 208 1.6 4.8 0.00 0.41 0.41 57 1004.5
20260505012905 19 214 1.6 8.0 0.00 0.41 0.41 56 1004.7
20260505012405 20 230 0.0 0.0 0.00 0.41 0.41 56 1004.6
20260505011904 20 202 0.0 0.0 0.00 0.41 0.41 55 1004.7
20260505010904 20 193 0.0 3.2 0.00 0.41 0.41 55 1004.6
20260505010404 20 187 1.6 4.8 0.00 0.41 0.41 55 1004.7
20260505005904 20 203 0.0 3.2 0.00 0.41 0.41 54 1004.3
20260505005404 21 227 0.0 4.8 0.00 0.41 0.41 54 1004.6
20260505004906 21 200 0.0 4.8 0.00 0.41 0.41 53 1004.4
20260505004404 21 214 0.0 3.2 0.00 0.41 0.41 53 1004.2
20260505003904 21 205 0.0 9.7 0.00 0.41 0.41 52 1004.1
20260505003404 21 201 0.0 3.2 0.00 0.41 0.41 52 1003.9
20260505002905 22 224 0.0 4.8 0.00 0.41 0.41 52 1004.4
20260505002405 22 206 0.0 8.0 0.00 0.41 0.41 51 1004.1
20260505001904 22 196 1.6 12.9 0.00 0.41 0.41 51 1004.1
20260505001404 22 183 3.2 11.3 0.00 0.41 0.41 50 1004.2
20260505000904 23 194 1.6 8.0 0.00 0.41 0.41 50 1003.9
20260505000406 23 210 1.6 9.7 0.00 0.41 0.41 50 1004.3
20260504235905 23 217 0.0 3.2 0.00 0.41 0.41 49 1004.2
20260504235404 24 185 1.6 16.1 0.00 0.41 0.41 49 1004.3
20260504234904 24 242 1.6 12.9 0.00 0.41 0.41 49 1004.0
20260504234404 24 187 6.4 20.9 0.00 0.41 0.41 49 1004.4
20260504233904 24 220 0.0 8.0 0.00 0.41 0.41 49 1004.6
20260504233404 24 226 1.6 11.3 0.00 0.41 0.41 49 1004.5
20260504232904 24 189 3.2 9.7 0.00 0.41 0.41 49 1004.7
20260504232404 24 189 3.2 14.5 0.00 0.41 0.41 48 1004.8
20260504231904 25 297 1.6 9.7 0.00 0.41 0.41 48 1005.0
20260504231404 25 211 1.6 12.9 0.00 0.41 0.41 48 1004.9
20260504225404 26 220 1.6 9.7 0.00 0.41 0.41 47 1005.1
20260504224905 26 214 1.6 9.7 0.00 0.41 0.41 47 1005.0
20260504223405 26 188 1.6 12.9 0.00 0.41 0.41 48 1005.1
20260504222904 26 208 0.0 8.0 0.00 0.41 0.41 47 1005.0
20260504222404 26 198 1.6 8.0 0.00 0.41 0.41 47 1005.2
20260504221905 26 208 3.2 9.7 0.00 0.41 0.41 47 1005.0
20260504221404 26 168 4.8 14.5 0.00 0.41 0.41 47 1005.2
20260504220904 26 25 3.2 12.9 0.00 0.41 0.41 46 1005.2
20260504215904 26 200 1.6 14.5 0.00 0.41 0.41 46 1005.2
20260504214904 26 203 1.6 16.1 0.00 0.41 0.41 46 1005.3
20260504214404 27 237 1.6 8.0 0.00 0.41 0.41 46 1005.4
20260504213904 27 172 3.2 20.9 0.00 0.41 0.41 46 1005.2
20260504213404 27 279 1.6 8.0 0.00 0.41 0.41 46 1005.4
20260504212904 27 22 1.6 9.7 0.00 0.41 0.41 47 1005.1
20260504212404 27 172 0.0 22.5 0.00 0.41 0.41 47 1005.2
20260504210404 27 205 4.8 22.5 0.00 0.41 0.41 48 1005.3
20260504205904 27 226 1.6 12.9 0.00 0.41 0.41 48 1005.3
20260504205404 27 244 1.6 9.7 0.00 0.41 0.41 48 1005.1
20260504204904 27 185 3.2 11.3 0.00 0.41 0.41 47 1005.2
20260504204404 27 221 3.2 12.9 0.00 0.41 0.41 47 1005.2
20260504203904 27 323 0.0 9.7 0.00 0.41 0.41 48 1005.1
20260504203404 27 190 4.8 25.7 0.00 0.41 0.41 48 1005.1
20260504202903 27 221 1.6 14.5 0.00 0.41 0.41 48 1005.1
20260504202404 27 142 1.6 11.3 0.00 0.41 0.41 49 1005.6
20260504201904 27 195 3.2 11.3 0.00 0.41 0.41 49 1005.4
20260504200904 27 255 1.6 16.1 0.00 0.41 0.41 49 1005.6
20260504195404 27 216 3.2 20.9 0.00 0.41 0.41 50 1005.7
20260504194404 26 267 1.6 19.3 0.00 0.41 0.41 51 1005.9
20260504193904 27 18 3.2 12.9 0.00 0.41 0.41 51 1006.1
20260504193404 26 19 1.6 16.1 0.00 0.41 0.41 51 1006.1
20260504192904 26 355 1.6 19.3 0.00 0.41 0.41 52 1006.3
20260504192404 26 199 1.6 9.7 0.00 0.41 0.41 52 1006.4
20260504191904 26 309 1.6 4.8 0.00 0.41 0.41 52 1006.4
20260504191404 26 253 1.6 8.0 0.00 0.41 0.41 52 1006.4
20260504190404 26 134 0.0 9.7 0.00 0.41 0.41 53 1006.5
20260504185904 26 225 1.6 11.3 0.00 0.41 0.41 54 1006.7
20260504185403 26 237 0.0 9.7 0.00 0.41 0.41 54 1006.9
20260504184904 26 209 0.0 9.7 0.00 0.41 0.41 54 1006.7
20260504184404 26 221 3.2 8.0 0.00 0.41 0.41 54 1006.8
20260504183904 26 38 1.6 3.2 0.00 0.41 0.41 54 1006.8
20260504183404 26 193 1.6 11.3 0.00 0.41 0.41 54 1006.8
20260504182904 26 320 1.6 11.3 0.00 0.41 0.41 55 1006.5
20260504182403 26 204 1.6 12.9 0.00 0.41 0.41 55 1006.8
20260504181904 26 231 1.6 12.9 0.00 0.41 0.41 55 1006.6
20260504181403 26 232 4.8 19.3 0.00 0.41 0.41 56 1006.8
20260504180903 26 188 8.0 20.9 0.00 0.41 0.41 56 1006.7
20260504180404 26 195 4.8 24.1 0.00 0.41 0.41 56 1006.8
20260504175904 26 194 1.6 16.1 0.00 0.41 0.41 57 1006.8
20260504175404 25 163 1.6 19.3 0.00 0.41 0.41 57 1006.7
20260504174904 25 144 1.6 19.3 0.00 0.41 0.41 57 1007.0
20260504174404 25 339 3.2 12.9 0.00 0.41 0.41 58 1006.7
20260504173904 25 171 3.2 16.1 0.00 0.41 0.41 58 1006.8
20260504173404 25 185 8.0 19.3 0.00 0.41 0.41 59 1007.2
20260504172903 25 188 1.6 8.0 0.00 0.41 0.41 59 1006.9
20260504172404 25 293 1.6 19.3 0.00 0.41 0.41 60 1007.2
20260504171904 24 188 4.8 20.9 0.00 0.41 0.41 60 1007.2
20260504171404 24 179 4.8 19.3 0.00 0.41 0.41 61 1007.5
20260504170903 23 181 4.8 25.7 0.00 0.41 0.41 61 1007.2
20260504170403 23 176 8.0 27.4 0.00 0.41 0.41 61 1007.3
20260504160406 21 187 4.8 16.1 0.00 0.41 0.41 72 1008.2
20260504150906 16 216 4.8 14.5 0.00 0.41 0.41 79 1009.0
20260504150406 16 212 1.6 20.9 0.00 0.41 0.41 79 1009.1